When you browse on this site, cookies collect data to enhance your experience and personalize the content and advertising you see.
Visit our Privacy Policy to learn more. By continuing to use the site, you agree to this use of cookies and data.
  • In Romania
  • List of Countries
  • For 7 days
  • Water Temperature
  • Satellite Maps
  • Weather Map
  • Weather Widgets
  • user-avatar
    Login

    Hourly Weather Bakhtaran

    Today, 21 November, Wednesday

    Time Temperature Precipitation Wind Pressure Humidity
    00:00 +9°C° 0 mm 1 mps 637 mmHg 47%
    01:00 +9°C° 0 mm 1 mps 637 mmHg 48%
    02:00 +8°C° 0 mm 1 mps 637 mmHg 49%
    03:00 +8°C° 0 mm 1 mps 636 mmHg 50%
    04:00 +8°C° 0 mm 1 mps 636 mmHg 51%
    05:00 +7°C° 0 mm 1 mps 636 mmHg 52%
    06:00 +7°C° 0 mm 1 mps 636 mmHg 52%
    07:00 +8°C° 0 mm 1 mps 637 mmHg 47%
    08:00 +10°C° 0 mm 1 mps 637 mmHg 42%
    09:00 +11°C° 0 mm 1 mps 638 mmHg 37%
    10:00 +12°C° 0 mm 2 mps 638 mmHg 35%
    11:00 +13°C° 0 mm 2 mps 638 mmHg 33%
    12:00 +14°C° 0 mm 2 mps 638 mmHg 30%
    13:00 +14°C° 0 mm 3 mps 638 mmHg 30%
    14:00 +14°C° 0 mm 3 mps 638 mmHg 31%
    15:00 +14°C° 0 mm 4 mps 638 mmHg 31%
    16:00 +13°C° 0 mm 3 mps 638 mmHg 35%
    17:00 +13°C° 0 mm 2 mps 637 mmHg 40%
    18:00 +12°C° 0 mm 2 mps 637 mmHg 44%
    19:00 +10°C° 0 mm 2 mps 637 mmHg 47%
    20:00 +10°C° 0 mm 1 mps 637 mmHg 50%
    21:00 +10°C° 0 mm 1 mps 637 mmHg 52%
    22:00 +10°C° 0 mm 1 mps 637 mmHg 54%
    23:00 +9°C° 0 mm 1 mps 637 mmHg 55%

    Tomorrow, 22 November, Thursday

    Time Temperature Precipitation Wind Pressure Humidity
    00:00 +9°C° 0 mm 1 mps 637 mmHg 57%
    01:00 +9°C° 0 mm 1 mps 637 mmHg 58%
    02:00 +8°C° 0 mm 1 mps 637 mmHg 60%
    03:00 +8°C° 0 mm 1 mps 636 mmHg 61%
    04:00 +8°C° 0 mm 1 mps 636 mmHg 63%
    05:00 +8°C° 0 mm 1 mps 636 mmHg 65%
    06:00 +7°C° 0 mm 1 mps 636 mmHg 66%
    07:00 +8°C° 0 mm 1 mps 637 mmHg 62%
    08:00 +8°C° 0 mm 2 mps 637 mmHg 59%
    09:00 +9°C° 0 mm 2 mps 638 mmHg 55%
    10:00 +10°C° 0 mm 2 mps 638 mmHg 52%
    11:00 +12°C° 0 mm 2 mps 638 mmHg 49%
    12:00 +13°C° 0 mm 2 mps 638 mmHg 46%
    13:00 +13°C° 0 mm 3 mps 638 mmHg 44%
    14:00 +13°C° 0 mm 3 mps 637 mmHg 41%
    15:00 +13°C° 0 mm 4 mps 637 mmHg 39%
    16:00 +12°C° 0 mm 3 mps 637 mmHg 42%
    17:00 +13°C° 0 mm 2 mps 637 mmHg 44%
    18:00 +12°C° 0 mm 2 mps 637 mmHg 47%
    19:00 +10°C° 0 mm 2 mps 637 mmHg 50%
    20:00 +10°C° 0 mm 2 mps 637 mmHg 52%
    21:00 +9°C° 0 mm 2 mps 637 mmHg 55%
    22:00 +10°C° 0 mm 1 mps 637 mmHg 57%
    23:00 +10°C° 0 mm 1 mps 637 mmHg 59%

    Day after tomorrow, 23 November, Friday

    Time Temperature Precipitation Wind Pressure Humidity
    00:00 +9°C° 0 mm 1 mps 636 mmHg 61%
    01:00 +9°C° 0 mm 1 mps 636 mmHg 62%
    02:00 +9°C° 0 mm 1 mps 636 mmHg 63%
    03:00 +9°C° 0 mm 1 mps 636 mmHg 63%
    04:00 +9°C° 0 mm 1 mps 636 mmHg 64%
    05:00 +9°C° 0 mm 1 mps 636 mmHg 64%
    06:00 +8°C° 0 mm 1 mps 636 mmHg 64%
    07:00 +9°C° 0.1 mm 1 mps 637 mmHg 61%
    08:00 +9°C° 0.1 mm 1 mps 637 mmHg 58%
    09:00 +10°C° 0.1 mm 1 mps 637 mmHg 55%
    10:00 +9°C° 0.1 mm 2 mps 637 mmHg 53%
    11:00 +10°C° 0.1 mm 2 mps 637 mmHg 50%
    12:00 +10°C° 0.1 mm 3 mps 637 mmHg 48%
    13:00 +10°C° 0.3 mm 3 mps 636 mmHg 52%
    14:00 +9°C° 0.3 mm 3 mps 636 mmHg 55%
    15:00 +9°C° 0.3 mm 3 mps 636 mmHg 58%
    16:00 +9°C° 0.7 mm 2 mps 636 mmHg 62%
    17:00 +8°C° 0.7 mm 2 mps 636 mmHg 66%
    18:00 +8°C° 0.7 mm 1 mps 635 mmHg 70%
    19:00 +8°C° 0.9 mm 1 mps 635 mmHg 72%
    20:00 +8°C° 0.9 mm 1 mps 635 mmHg 75%
    21:00 +8°C° 0.9 mm 1 mps 635 mmHg 77%
    22:00 +8°C° 1.1 mm 1 mps 635 mmHg 79%
    23:00 +7°C° 1.1 mm 1 mps 635 mmHg 80%

    24 November, Saturday

    Time Temperature Precipitation Wind Pressure Humidity
    00:00 +7°C° 1.1 mm 1 mps 635 mmHg 82%
    01:00 +7°C° 1.2 mm 1 mps 635 mmHg 83%
    02:00 +7°C° 1.2 mm 1 mps 635 mmHg 84%
    03:00 +6°C° 1.2 mm 0 mps 635 mmHg 85%
    04:00 +7°C° 0.2 mm 1 mps 635 mmHg 85%
    05:00 +7°C° 0.2 mm 1 mps 635 mmHg 84%
    06:00 +7°C° 0.2 mm 1 mps 636 mmHg 84%
    07:00 +8°C° 0.1 mm 1 mps 636 mmHg 81%
    08:00 +8°C° 0.1 mm 1 mps 637 mmHg 79%
    09:00 +8°C° 0.1 mm 2 mps 637 mmHg 77%
    10:00 +9°C° 0.1 mm 2 mps 637 mmHg 74%
    11:00 +10°C° 0.1 mm 2 mps 637 mmHg 71%
    12:00 +10°C° 0.1 mm 3 mps 638 mmHg 69%
    13:00 +11°C° 0.4 mm 3 mps 638 mmHg 69%
    14:00 +12°C° 0.4 mm 2 mps 638 mmHg 69%
    15:00 +12°C° 0.4 mm 2 mps 637 mmHg 68%
    16:00 +12°C° 0.9 mm 2 mps 638 mmHg 71%
    17:00 +10°C° 0.9 mm 2 mps 638 mmHg 73%
    18:00 +10°C° 0.9 mm 2 mps 638 mmHg 75%
    19:00 +10°C° 0.4 mm 2 mps 638 mmHg 77%
    20:00 +9°C° 0.4 mm 2 mps 638 mmHg 78%
    21:00 +9°C° 0.4 mm 2 mps 638 mmHg 80%
    22:00 +9°C° 0.8 mm 2 mps 638 mmHg 80%
    23:00 +8°C° 0.8 mm 2 mps 638 mmHg 81%

    25 November, Sunday

    Time Temperature Precipitation Wind Pressure Humidity
    00:00 +9°C° 0.8 mm 1 mps 637 mmHg 82%
    01:00 +9°C° 2.5 mm 1 mps 637 mmHg 84%
    02:00 +8°C° 2.5 mm 1 mps 636 mmHg 86%
    03:00 +8°C° 2.5 mm 1 mps 636 mmHg 89%
    04:00 +7°C° 2.6 mm 1 mps 635 mmHg 89%
    05:00 +7°C° 2.6 mm 1 mps 635 mmHg 90%
    06:00 +7°C° 2.6 mm 1 mps 635 mmHg 90%
    07:00 +7°C° 0.8 mm 2 mps 636 mmHg 88%
    08:00 +7°C° 0.8 mm 2 mps 636 mmHg 86%
    09:00 +7°C° 0.8 mm 2 mps 636 mmHg 84%
    10:00 +8°C° 0.5 mm 3 mps 636 mmHg 79%
    11:00 +9°C° 0.5 mm 3 mps 636 mmHg 74%
    12:00 +10°C° 0.5 mm 4 mps 636 mmHg 69%
    13:00 +10°C° 0.8 mm 4 mps 636 mmHg 69%
    14:00 +10°C° 0.8 mm 3 mps 635 mmHg 69%
    15:00 +10°C° 0.8 mm 3 mps 635 mmHg 69%
    16:00 +9°C° 0.5 mm 2 mps 635 mmHg 72%
    17:00 +9°C° 0.5 mm 2 mps 635 mmHg 74%
    18:00 +10°C° 0.5 mm 1 mps 636 mmHg 76%
    19:00 +9°C° 0.3 mm 1 mps 636 mmHg 77%
    20:00 +9°C° 0.3 mm 1 mps 636 mmHg 78%
    21:00 +9°C° 0.3 mm 1 mps 636 mmHg 80%
    22:00 +9°C° 0.3 mm 1 mps 636 mmHg 81%
    23:00 +8°C° 0.3 mm 1 mps 636 mmHg 82%

    26 November, Monday

    Time Temperature Precipitation Wind Pressure Humidity
    00:00 +8°C° 0.3 mm 1 mps 635 mmHg 84%
    01:00 +8°C° 0.1 mm 1 mps 635 mmHg 85%
    02:00 +8°C° 0.1 mm 1 mps 636 mmHg 86%
    03:00 +8°C° 0.1 mm 1 mps 636 mmHg 87%
    04:00 +7°C° 0 mm 1 mps 636 mmHg 88%
    05:00 +7°C° 0 mm 1 mps 636 mmHg 89%
    06:00 +7°C° 0 mm 1 mps 636 mmHg 90%
    07:00 +7°C° 0 mm 1 mps 636 mmHg 86%
    08:00 +8°C° 0 mm 1 mps 637 mmHg 82%
    09:00 +9°C° 0 mm 1 mps 637 mmHg 78%
    10:00 +9°C° 0 mm 2 mps 637 mmHg 71%
    11:00 +9°C° 0 mm 2 mps 637 mmHg 65%
    12:00 +10°C° 0 mm 2 mps 637 mmHg 59%
    13:00 +10°C° 0 mm 2 mps 637 mmHg 57%
    14:00 +12°C° 0 mm 2 mps 637 mmHg 55%
    15:00 +12°C° 0 mm 2 mps 637 mmHg 54%
    16:00 +10°C° 0 mm 2 mps 637 mmHg 58%
    17:00 +11°C° 0 mm 1 mps 637 mmHg 62%
    18:00 +10°C° 0 mm 1 mps 637 mmHg 66%
    19:00 +9°C° 0 mm 1 mps 637 mmHg 69%
    20:00 +9°C° 0 mm 1 mps 637 mmHg 72%
    21:00 +8°C° 0 mm 1 mps 637 mmHg 75%
    22:00 +8°C° 0 mm 1 mps 637 mmHg 77%
    23:00 +8°C° 0 mm 1 mps 637 mmHg 79%
    Show more